Hourly Data Report for October 04, 2017

All times are specified in Local Standard Time (LST). Add 1 hour to adjust for Daylight Saving Time where and when it is observed.

SAULT STE MARIE A
ONTARIO

46°29'06.000" N
84°30'35.000" W
192.00 m
6057591
71260
YAM

Download Data

Hourly Data (October 2017)
Hourly Data Report for October 4, 2017
Temp Definition
°C
Dew Point Temp Definition
°C
Rel Hum Definition
%
Wind Dir Definition
10's deg

Wind Spd Definition
km/h
Visibility Definition
km
Stn Press Definition
kPa
Hmdx Definition


Wind Chill Definition


Weather Definition


TIME
00:00 Legend Double Dagger 20.7 18.3 86 20 16 12.9 99.45 27   Thunderstorms,Rain Showers
01:00 Legend Double Dagger 19.7 18.6 93 23 25 8.1 99.51     Thunderstorms,Rain Showers,Fog
02:00 Legend Double Dagger 17.6 17.1 97 30 16 4.8 99.55     Rain,Fog
03:00 Legend Double Dagger 17.3 16.4 95 30 17 19.3 99.58     Rain
04:00 Legend Double Dagger 15.6 14.4 93 29 34 8.1 99.68     Rain
05:00 Legend Double Dagger 15.2 14.0 92 30 33 8.1 99.74     Rain,Fog
06:00 Legend Double Dagger 14.7 12.6 87 31 27 19.3 99.74     LegendNANA
07:00 Legend Double Dagger 14.7 11.5 81 30 29 24.1 99.77     Cloudy
08:00 Legend Double Dagger 14.4 11.7 83 31 25 24.1 99.80     LegendNANA
09:00 Legend Double Dagger 14.5 10.6 77 32 18 24.1 99.80     LegendNANA
10:00 Legend Double Dagger 14.8 11.0 78 30 24 24.1 99.80     Mostly Cloudy
11:00 Legend Double Dagger 14.8 10.1 73 31 17 24.1 99.83     LegendNANA
12:00 Legend Double Dagger 14.4 9.8 73 31 21 24.1 99.79     LegendNANA
13:00 Legend Double Dagger 14.3 9.0 70 32 23 24.1 99.83     Mostly Cloudy
14:00 Legend Double Dagger 15.7 8.7 63 30 28 24.1 99.75     LegendNANA
15:00 Legend Double Dagger 16.2 8.9 62 31 17 24.1 99.73     LegendNANA
16:00 Legend Double Dagger 15.7 8.8 63 30 17 24.1 99.75     Mainly Clear
17:00 Legend Double Dagger 14.8 8.8 67 35 21 24.1 99.75     LegendNANA
18:00 Legend Double Dagger 13.2 8.5 73 31 10 24.1 99.77     LegendNANA
19:00 Legend Double Dagger 13.2 8.6 74 31 22 24.1 99.78     Mainly Clear
20:00 Legend Double Dagger 13.1 7.9 71 30 24 24.1 99.83     LegendNANA
21:00 Legend Double Dagger 12.5 7.8 73 30 21 24.1 99.79     LegendNANA
22:00 Legend Double Dagger 12.3 8.0 75 29 17 24.1 99.75     Clear
23:00 Legend Double Dagger 11.7 9.3 85 27 15 24.1 99.73     LegendNANA

Notes on Data Quality.

Legend

  • E = Estimated
  • M = Missing
  • NA = Not Available
  • ‡ = Partner data that is not subject to review by the National Climate Archives
Date modified: